Tracking 27107 objects as of 21-Mar-2023
HD Live streaming from Space Station
objects crossing your sky now

STARLINK-4056

Track STARLINK-4056 now!
10-day predictions
STARLINK-4056 is classified as:


NORAD ID: 53242
Int'l Code: 2022-086A
Perigee: 546.0 km
Apogee: 547.7 km
Inclination: 53.2 °
Period: 95.4 minutes
Semi major axis: 6917 km
RCS: Unknown
Launch date: July 24, 2022
Source: United States (US)
Launch site: AIR FORCE EASTERN TEST RANGE (AFETR)
Your satellite tracking list
Your tracking list is empty




NASA's NSSDC Master Catalog

Two Line Element Set (TLE):
1 53242U 22086A   23080.22118678  .00004749  00000-0  31617-3 0  9997
2 53242  53.2181  27.4798 0001233  96.5277 263.5856 15.08854378 37093
Source of the keplerian elements: AFSPC